FW4441 Weather Reports


time (UTC)temp
F
wind
direction
speed
knots
gust
knots
rain 1hr
in
rain 24hr
in
rain mn
in
humidity
%
barometer
mb
20260508110149 51 32 2.6 4.3 0.00 0.00 0.00 61 1014.1
20260508101547 50 38 2.6 5.2 0.00 0.00 0.00 61 1014.1
20260508100029 50 38 3.5 6.1 0.00 0.00 0.00 60 1014.1
20260508094532 50 24 3.5 5.2 0.00 0.00 0.00 59 1014.0
20260508093029 51 22 3.5 5.2 0.00 0.00 0.00 57 1013.9
20260508090032 53 37 2.6 5.2 0.00 0.00 0.00 54 1013.9
20260508084532 53 39 1.7 4.3 0.00 0.00 0.00 54 1013.9
20260508083030 53 11 1.7 3.5 0.00 0.00 0.00 53 1013.9
20260508081530 54 65 1.7 3.5 0.00 0.00 0.00 53 1013.9
20260508080030 54 35 0.0 2.6 0.00 0.00 0.00 53 1013.9
20260508074533 54 194 0.9 3.5 0.00 0.00 0.00 53 1013.9
20260508071531 54 105 0.0 2.6 0.00 0.00 0.00 53 1013.9
20260508070043 54 245 0.0 3.5 0.00 0.00 0.00 53 1013.8
20260508064532 54 172 0.9 4.3 0.00 0.00 0.00 51 1013.8
20260508061530 53 295 0.9 5.2 0.00 0.00 0.00 48 1013.8
20260508060029 54 312 0.9 3.5 0.00 0.00 0.00 46 1013.9
20260508054531 53 313 0.0 3.5 0.00 0.00 0.00 46 1013.8
20260508051606 55 282 2.6 4.3 0.00 0.00 0.00 43 1013.9
20260508044607 56 244 1.7 5.2 0.00 0.00 0.00 43 1013.7
20260508043028 57 217 1.7 4.3 0.00 0.00 0.00 44 1013.7
20260508041530 57 235 2.6 6.1 0.00 0.00 0.00 43 1013.6
20260508034532 59 238 4.3 11.3 0.00 0.00 0.00 37 1013.3
20260508031533 61 229 4.3 7.8 0.00 0.00 0.00 32 1013.0
20260508030030 62 219 4.3 8.7 0.00 0.00 0.00 30 1013.0
20260508023031 64 255 7.0 13.0 0.00 0.00 0.00 28 1012.8
20260508021608 65 261 7.0 13.0 0.00 0.00 0.00 27 1012.7
20260508020028 66 259 7.8 18.2 0.00 0.00 0.00 26 1012.6
20260508013030 68 255 9.6 18.2 0.00 0.00 0.00 23 1012.5
20260508011531 70 258 9.6 19.1 0.00 0.00 0.00 23 1012.6
20260508010107 70 265 9.6 20.0 0.00 0.00 0.00 22 1012.7
20260508004603 71 272 9.6 20.0 0.00 0.00 0.00 21 1012.7
20260508001532 72 271 9.6 19.1 0.00 0.00 0.00 21 1012.7
20260508000037 72 268 8.7 18.2 0.00 0.00 0.00 22 1012.7
20260507234533 72 264 10.4 22.6 0.00 0.00 0.00 23 1012.7
20260507231532 70 256 11.3 21.7 0.00 0.00 0.00 27 1012.9
20260507230029 71 255 11.3 21.7 0.00 0.00 0.00 28 1012.9
20260507224532 73 249 12.2 21.7 0.00 0.00 0.00 28 1012.9
20260507223030 74 248 11.3 19.1 0.00 0.00 0.00 29 1013.0
20260507220147 73 264 7.8 18.2 0.00 0.00 0.00 32 1013.5
20260507214530 73 268 9.6 18.2 0.00 0.00 0.00 33 1013.6
20260507213035 74 262 9.6 19.1 0.00 0.00 0.00 35 1013.8
20260507210031 73 270 6.1 14.8 0.00 0.00 0.00 39 1014.1
20260507204608 72 280 7.8 16.5 0.00 0.00 0.00 39 1014.2
20260507203032 73 285 7.0 15.6 0.00 0.00 0.00 40 1014.3
20260507201531 72 282 7.0 13.0 0.00 0.00 0.00 41 1014.5
20260507193031 69 284 7.0 13.9 0.00 0.00 0.00 44 1014.8
20260507190105 66 266 11.3 20.9 0.00 0.00 0.00 45 1015.1
20260507184533 67 275 10.4 20.9 0.00 0.00 0.00 47 1015.2
20260507183040 66 283 7.8 17.4 0.00 0.00 0.00 50 1015.5
20260507180031 65 301 5.2 11.3 0.00 0.00 0.00 53 1015.8
20260507173030 63 295 4.3 10.4 0.00 0.00 0.00 57 1016.2
20260507171605 62 284 6.1 12.2 0.00 0.00 0.00 58 1016.3
20260507170145 61 273 6.1 12.2 0.00 0.00 0.00 60 1016.4
20260507164607 59 269 6.1 12.2 0.00 0.00 0.00 62 1016.3
20260507163031 59 273 7.0 14.8 0.00 0.00 0.00 63 1016.5
20260507161533 58 275 6.1 15.6 0.00 0.00 0.00 64 1016.5
20260507153028 55 258 8.7 17.4 0.00 0.00 0.00 70 1016.6
20260507151603 55 262 8.7 15.6 0.00 0.00 0.00 72 1016.6
20260507150037 53 266 8.7 18.2 0.00 0.00 0.00 75 1016.6
20260507144534 52 265 8.7 18.2 0.00 0.00 0.00 79 1016.7
20260507143031 51 286 7.0 17.4 0.00 0.00 0.00 81 1016.7
20260507141531 50 307 7.0 12.2 0.00 0.00 0.00 83 1016.7
20260507140032 50 341 8.7 13.0 0.00 0.00 0.00 84 1016.5
20260507134533 49 360 7.8 12.2 0.00 0.00 0.00 85 1016.3
20260507131645 49 340 5.2 9.6 0.00 0.00 0.00 84 1016.1
20260507130033 50 312 4.3 8.7 0.00 0.00 0.00 84 1016.1
20260507124529 50 306 3.5 6.1 0.00 0.00 0.00 83 1016.0
20260507123107 50 332 4.3 7.0 0.00 0.00 0.00 82 1016.1
20260507121554 51 343 2.6 6.1 0.00 0.00 0.00 82 1016.2
20260507120030 51 324 3.5 8.7 0.00 0.00 0.00 82 1016.1
20260507114606 51 302 5.2 10.4 0.00 0.00 0.00 81 1015.9
20260507113030 52 261 6.1 14.8 0.00 0.00 0.00 81 1015.8
20260507111530 52 258 7.8 16.5 0.00 0.00 0.00 81 1015.6